Home   Weather   Nordhorn   Past weeks

Flag for Germany Past Weather in Nordhorn, Lower Saxony, Germany — Yesterday and Last 2 Weeks

Now
79 °F

Pleasantly warm.


Feels Like: 79 °F
Forecast: 57 / 82 °F
Wind: 12 mph from Northeast

Location: Rheine-Bentlage

Current Time: May 26, 2017 at 7:07:55 pm

Latest Report: May 26, 2017 at 5:20 pm


Visibility: N/A

Pressure: 30.15 "Hg

Humidity: 34%

Dew Point: 48 °F

Location of NordhornLocation

Past Weather in Nordhorn — Graph

°F

Nordhorn Temperature Yesterday

Maximum temperature yesterday: 72 °F (at 3:20 pm)
Minimum temperature yesterday: 48 °F (at 3:20 am)
Average temperature yesterday: 60 °F

High & Low Weather Summary for the Past Weeks

 TemperatureHumidityPressure
High82 °F (May 17, 2:20 pm)100% (May 13, 6:20 am)30.39 "Hg (May 13, 6:20 am)
Low43 °F (May 15, 5:20 am)28% (May 15, 7:20 pm)29.42 "Hg (May 11, 7:20 pm)
Average62 °F67%30.06 "Hg
* Reported May 11 4:20 pm — May 26 4:20 pm, Nordhorn. Weather by CustomWeather, © 2017

Note: Actual official high and low records may vary slightly from our data, if they occured in-between our weather recording intervals... More about our weather records

Advertising

Nordhorn Weather History for the Previous 24 Hours

Scroll right to see more
 ConditionsComfort  
Time TempWeatherWind HumidityBarometerVisibility
4:20 pm
Fri, May 26
79 °FPleasantly warm.10 mph34%30.15 "HgN/A
3:20 pm77 °FPleasantly warm.9 mph34%30.15 "HgN/A
2:20 pm75 °FMild.8 mph36%30.18 "HgN/A
1:20 pm75 °FMild.7 mph41%30.18 "HgN/A
12:20 pm73 °FMild.6 mph47%30.21 "HgN/A
11:20 am70 °FMild.6 mph57%30.21 "HgN/A
10:20 am66 °FMild.6 mph64%30.21 "HgN/A
9:20 am63 °FMild.3 mph73%30.24 "HgN/A
8:20 am59 °FCool.5 mph77%30.24 "HgN/A
7:20 am57 °FCool.No wind82%30.21 "HgN/A
6:20 am50 °FCool.3 mph94%30.24 "HgN/A
5:20 am48 °FCool.1 mph100%30.21 "HgN/A
4:20 am50 °FCool.2 mph94%30.21 "HgN/A
3:20 am52 °FCool.1 mph94%30.21 "HgN/A
2:20 am54 °FCool.2 mph88%30.21 "HgN/A
1:20 am55 °FCool.3 mph88%30.21 "HgN/A
12:20 am55 °FCool.1 mph88%30.21 "HgN/A
11:20 pm
Thu, May 25
59 °FCool.3 mph77%30.21 "HgN/A
10:20 pm63 °FMild.5 mph68%30.21 "HgN/A
9:20 pm64 °FMild.5 mph64%30.21 "HgN/A
8:20 pm68 °FMild.7 mph60%30.21 "HgN/A
7:20 pm70 °FMild.12 mph53%30.21 "HgN/A
Weather by CustomWeather, © 2017

See weather overviewHow to use our weather pages